Preview of NWS' New Version of Forecast
This preview is not operational and should not be used for support decisions.

Regional Weather Roundup (RWR)

Issued by National Weather Service (NWS)

                            
000
ASUS44 KJAN 240610
RWRMS 

MISSISSIPPI HOURLY WEATHER ROUNDUP
NATIONAL WEATHER SERVICE JACKSON MS
100 AM CDT FRI MAY 24 2019

NOTE: "FAIR: INDICATES FEW OR NO CLOUDS BELOW 12,000 FEET WITH NO
SIGNIFICANT WEATHER AND/OR OBSTRUCTIONS TO VISIBILITY.

MSZ001>002-007>008-010>013-018>021-025>028-034>036-240700-
NORTHWEST MISSISSIPPI
  
CITY           SKY/WX    TMP DP  RH WIND       PRES   REMARKS
BATESVILLE       N/A     68  68 100 CALM      30.08F                  
CLARKSDALE     CLEAR     73  70  88 CALM      30.08S                  
CLEVELAND      FAIR      75  65  72 S3        30.07S                  
GREENWOOD      FAIR      72  69  90 CALM      30.08F                  
6HR MIN TEMP:  72; 6HR MAX TEMP:  84;                                

GREENVILLE     FAIR      72  66  81 SE3       30.06F                  
6HR MIN TEMP:  72; 6HR MAX TEMP:  88;                                

OLIVE BRANCH   CLEAR     70  68  94 S6        30.08S                  
OXFORD         FAIR      70  66  88 SE3       30.11S                  
TUNICA           N/A     72  64  78 SE3       30.08S                  
WINONA         FAIR      69  69 100 CALM      30.10S                  
$$

MSZ003>006-009-014>017-022>024-029>033-037>039-240700-
NORTHEAST MISSISSIPPI
  
CITY           SKY/WX    TMP DP  RH WIND       PRES   REMARKS
ABERDEEN       FAIR      68  68 100 CALM      30.12S                  
COLUMBUS AFB   FAIR      71  68  90 CALM      30.09F                  
6HR MIN TEMP:  71; 6HR MAX TEMP:  87;                                

CORINTH        FAIR      70  68  94 SE3       30.11S                  
GOLDN TRIANGLE FAIR      75  69  81 S3        30.11F                  
STARKVILLE     FAIR      70  68  94 CALM      30.11F                  
TUPELO         FAIR      73  67  81 CALM      30.10S                  
6HR MIN TEMP:  73; 6HR MAX TEMP:  88;                                

$$

MSZ040-058-240700-
CENTRAL MISSISSIPPI
  
CITY           SKY/WX    TMP DP  RH WIND       PRES   REMARKS
JACKSON INTL   FAIR      75  69  81 S6        30.09F                  
6HR MIN TEMP:  74; 6HR MAX TEMP:  88;                                

JACKSON HAWKNS FAIR      76  71  85 S6        30.10F                  
6HR MIN TEMP:  76; 6HR MAX TEMP:  87;                                

MADISON        FAIR      72  72 100 CALM      30.09F                  
MERIDIAN KEY   CLOUDY    77  71  82 MISG      30.11F                  
6HR MIN TEMP:  75; 6HR MAX TEMP:  89;                                

MERIDIAN NAS   MOCLDY    73  71  93 CALM      30.11F                  
6HR MIN TEMP:  73; 6HR MAX TEMP:  87;                                

RAYMOND        FAIR      72  72 100 CALM      30.09S                  
VICKSBURG VKS  CLEAR     77  72  83 S7        30.08F                  
$$

MSZ059>079-240700-
SOUTH MISSISSIPPI
  
CITY           SKY/WX    TMP DP  RH WIND       PRES   REMARKS
BROOKHAVEN     CLOUDY    72  70  94 CALM      30.12F                  
HATTIESBURG    LGT RAIN  77  71  82 SE5       30.12S                  
6HR MIN TEMP:  77; 6HR MAX TEMP:  88; 6HR PCP: TRACE;                

LAUREL         CLOUDY    77  71  82 SE5       30.12S                  
MCCOMB         FAIR      73  69  87 CALM      30.10F                  
6HR MIN TEMP:  72; 6HR MAX TEMP:  84;                                

NATCHEZ        FAIR      74  70  87 S8        30.10F                  
6HR MIN TEMP:  74; 6HR MAX TEMP:  87;                                

PINE BELT      CLOUDY    75  72  90 S3        30.13S                  
6HR MIN TEMP:  74; 6HR MAX TEMP:  87;                                

$$

MSZ080>082-240700-
COASTAL MISSISSIPPI
  
CITY           SKY/WX    TMP DP  RH WIND       PRES   REMARKS
BILOXI         FAIR      79  71  77 SE7       30.10F                  
6HR MIN TEMP:  79; 6HR MAX TEMP:  83;                                

PASCAGOULA     NOT AVBL                                               
GULFPORT       FAIR      78  71  79 SE9       30.09F                  
6HR MIN TEMP:  78; 6HR MAX TEMP:  84;                                

$$

LAZ007>009-015>016-023>026-240700-
NORTHEAST LOUISIANA
  
CITY           SKY/WX    TMP DP  RH WIND       PRES   REMARKS
BASTROP        FAIR      75  70  85 SE3       30.07F                  
TALLULAH/VBURG FAIR      76  70  82 S5        30.08F                  
6HR MIN TEMP:  75; 6HR MAX TEMP:  84;                                

VIDALIA        FAIR      75  71  87 SE7       30.08S                  
$$